Portsmouth, NH

10:00 PM EST on December 13, 2017 (GMT -0500)
Pease International Tradeport

Weather History for KPSM - November, 2013

Change the Weather History Date:

Saturday, November 30, 2013

  Actual Average Record
Temperature  
Mean Temperature 22 °F -  
Max Temperature 31 °F 42 °F 66 °F (2006)
Min Temperature 12 °F 27 °F 8 °F (1989)
Degree Days  
Heating Degree Days 44    
Moisture  
Dew Point 13 °F    
Average Humidity 65    
Maximum Humidity 84    
Minimum Humidity 47    
Precipitation  
Precipitation 0.00 in - - ()
Sea Level Pressure  
Sea Level Pressure 30.68 in    
Wind  
Wind Speed 4 mph (SW)    
Max Wind Speed 8 mph    
Max Gust Speed -    
Visibility 10 miles    
Events      
Averages and records for this station are not official NWS values.
T = Trace of Precipitation, MM = Missing Value Source: NWS Daily Summary

Daily Weather History Graph

Daily Weather History Graph

Search for Another Location

Airport or City:

Trip Planner

Search our weather history database for the weather conditions in past years. The results will help you decide how hot, cold, wet, or windy it might be!

Date:

Astronomy

Nov. 30, 2013 Rise Set
Actual Time 6:54 AM EST 4:09 PM EST
Civil Twilight 6:22 AM EST 4:41 PM EST
Nautical Twilight 5:47 AM EST 5:16 PM EST
Astronomical Twilight 5:12 AM EST 5:50 PM EST
Moon 3:58 AM EST (11/30) 2:34 PM EST (11/30)
Length of Visible Light 10h 19m
Length of Day
9h 15m
Waning Crescent, 7% of the Moon is Illuminated
Nov 30
Waning Crescent
Dec 2
New
Dec 9
First Quarter
Dec 17
Full
Dec 25
Last Quarter

Hourly Weather History & Observations

Time (EST) Temp. Windchill Dew Point Humidity Pressure Visibility Wind Dir Wind Speed Gust Speed Precip Events Conditions
12:58 AM 14.4 °F 4.3 °F 5.5 °F 68% 30.75 in 10.0 mi NNW 6.9 mph - N/A   Clear
1:58 AM 16.9 °F - 6.4 °F 64% 30.77 in 10.0 mi NW 2.3 mph - N/A   Clear
2:58 AM 13.5 °F - 6.8 °F 75% 30.78 in 10.0 mi West 2.3 mph - N/A   Clear
3:58 AM 12.0 °F - 6.4 °F 78% 30.78 in 10.0 mi WNW 2.3 mph - N/A   Clear
4:58 AM 12.9 °F - 7.5 °F 79% 30.79 in 10.0 mi WNW 2.3 mph - N/A   Clear
5:58 AM 12.7 °F 6.7 °F 7.2 °F 78% 30.80 in 10.0 mi NW 3.5 mph - N/A   Partly Cloudy
6:58 AM 12.4 °F - 8.4 °F 84% 30.81 in 10.0 mi WNW 2.3 mph - N/A   Partly Cloudy
7:58 AM 15.1 °F 9.4 °F 9.7 °F 79% 30.81 in 10.0 mi NW 3.5 mph - N/A   Partly Cloudy
8:58 AM 20.8 °F 13.2 °F 9.9 °F 63% 30.82 in 10.0 mi North 5.8 mph - N/A   Partly Cloudy
9:58 AM 24.8 °F 19.1 °F 9.7 °F 53% 30.80 in 10.0 mi Variable 4.6 mph - N/A   Partly Cloudy
10:58 AM 28.8 °F - 10.8 °F 47% 30.77 in 10.0 mi Variable 2.3 mph - N/A   Scattered Clouds
11:58 AM 30.2 °F 23.4 °F 13.8 °F 51% 30.73 in 10.0 mi ENE 6.9 mph - N/A   Scattered Clouds
12:58 PM 31.3 °F 26.6 °F 14.7 °F 50% 30.70 in 10.0 mi SSE 4.6 mph - N/A   Mostly Cloudy
1:58 PM 30.9 °F 24.3 °F 15.6 °F 53% 30.67 in 10.0 mi SSE 6.9 mph - N/A   Mostly Cloudy
2:58 PM 31.5 °F 24.9 °F 15.3 °F 51% 30.65 in 10.0 mi South 6.9 mph - N/A   Mostly Cloudy
3:58 PM 29.5 °F 23.4 °F 16.9 °F 59% 30.64 in 10.0 mi SSE 5.8 mph - N/A   Scattered Clouds
4:58 PM 27.9 °F 22.6 °F 15.4 °F 60% 30.62 in 10.0 mi South 4.6 mph - N/A   Scattered Clouds
5:58 PM 26.6 °F - 16.0 °F 64% 30.60 in 10.0 mi SE 2.3 mph - N/A   Scattered Clouds
6:58 PM 27.7 °F 23.8 °F 18.1 °F 67% 30.58 in 10.0 mi SSW 3.5 mph - N/A   Mostly Cloudy
7:58 PM 28.0 °F 24.2 °F 17.8 °F 65% 30.56 in 10.0 mi SSW 3.5 mph - N/A   Overcast
8:58 PM 28.0 °F 20.0 °F 19.6 °F 71% 30.55 in 10.0 mi South 8.1 mph - N/A   Overcast
9:58 PM 28.6 °F 22.4 °F 18.7 °F 66% 30.53 in 10.0 mi SSE 5.8 mph - N/A   Overcast
10:58 PM 30.0 °F 25.2 °F 17.8 °F 60% 30.48 in 10.0 mi South 4.6 mph - N/A   Overcast
11:58 PM 30.0 °F 24.1 °F 19.0 °F 64% 30.44 in 10.0 mi South 5.8 mph - N/A   Overcast